TimeEST,TemperatureF,Dew PointF,Humidity,Sea Level PressureIn,VisibilityMPH,Wind Direction,Wind SpeedMPH,Gust SpeedMPH,PrecipitationIn,Events,Conditions,WindDirDegrees,DateUTC
12:51 AM,34.0,28.0,79,29.13,10.0,South,6.9,-,N/A,,Overcast,190,2012-12-22 05:51:00
1:51 AM,34.0,28.0,79,29.14,10.0,South,8.1,-,N/A,,Overcast,180,2012-12-22 06:51:00
2:51 AM,33.1,28.9,85,29.15,10.0,SSW,8.1,-,N/A,,Mostly Cloudy,210,2012-12-22 07:51:00
3:51 AM,32.0,28.9,88,29.15,10.0,South,9.2,-,N/A,,Overcast,190,2012-12-22 08:51:00
4:51 AM,33.8,28.4,81,29.13,10.0,SSW,8.1,-,N/A,,Overcast,210,2012-12-22 09:51:00
5:51 AM,33.1,27.0,78,29.19,10.0,SSW,8.1,-,N/A,,Overcast,210,2012-12-22 10:51:00
6:51 AM,33.1,26.1,75,29.22,10.0,WSW,8.1,-,N/A,,Overcast,240,2012-12-22 11:51:00
7:51 AM,30.9,23.0,72,29.27,10.0,SW,10.4,-,N/A,,Overcast,230,2012-12-22 12:51:00
8:03 AM,30.2,24.8,80,29.25,10.0,West,11.5,20.7,N/A,,Overcast,280,2012-12-22 13:03:00
8:51 AM,28.0,21.9,78,29.32,5.0,WNW,6.9,-,0.00,Snow,Light Snow,290,2012-12-22 13:51:00
9:08 AM,28.4,21.2,74,29.29,8.0,WNW,10.4,17.3,0.00,Snow,Light Snow,300,2012-12-22 14:08:00
9:51 AM,27.0,19.0,72,29.36,10.0,WNW,8.1,20.7,0.00,,Overcast,290,2012-12-22 14:51:00
10:51 AM,27.0,18.0,69,29.37,10.0,West,9.2,17.3,0.00,,Overcast,260,2012-12-22 15:51:00
11:51 AM,25.0,17.1,72,29.39,10.0,West,10.4,19.6,N/A,,Overcast,270,2012-12-22 16:51:00
12:26 PM,24.8,17.6,74,29.35,9.0,West,9.2,19.6,N/A,,Overcast,280,2012-12-22 17:26:00
12:35 PM,24.8,15.8,69,29.35,10.0,West,9.2,21.9,N/A,,Overcast,260,2012-12-22 17:35:00
12:51 PM,25.0,15.1,66,29.41,10.0,West,15.0,24.2,N/A,,Overcast,280,2012-12-22 17:51:00
1:14 PM,24.8,15.8,69,29.37,2.5,WNW,16.1,27.6,0.00,Snow,Light Snow,290,2012-12-22 18:14:00
1:25 PM,23.0,15.8,74,29.38,4.0,West,13.8,20.7,0.00,Snow,Light Snow,270,2012-12-22 18:25:00
1:51 PM,23.0,16.0,74,29.44,2.5,West,9.2,-,0.00,Snow,Light Snow,280,2012-12-22 18:51:00
2:06 PM,21.2,15.8,80,29.40,3.0,West,11.5,19.6,0.00,Snow,Light Snow,270,2012-12-22 19:06:00
2:17 PM,21.2,15.8,80,29.40,1.8,WNW,11.5,19.6,0.00,Snow,Light Snow,290,2012-12-22 19:17:00
2:39 PM,21.2,15.8,80,29.42,3.0,WNW,9.2,17.3,0.00,Snow,Light Snow,290,2012-12-22 19:39:00
2:51 PM,23.0,14.0,68,29.47,6.0,WNW,13.8,21.9,0.00,Snow,Light Snow,290,2012-12-22 19:51:00
3:51 PM,21.0,15.1,78,29.51,2.5,WNW,9.2,-,0.00,Snow,Light Snow,300,2012-12-22 20:51:00
4:14 PM,19.4,15.8,86,29.47,1.5,WNW,10.4,17.3,0.00,Snow,Light Snow,300,2012-12-22 21:14:00
4:25 PM,19.4,15.8,86,29.48,3.0,WNW,10.4,17.3,0.00,Snow,Light Snow,300,2012-12-22 21:25:00
4:51 PM,19.9,14.0,78,29.55,4.0,WNW,10.4,17.3,0.00,Snow,Light Snow,290,2012-12-22 21:51:00
5:12 PM,19.4,12.2,74,29.50,6.0,WNW,8.1,18.4,0.00,Snow,Light Snow,300,2012-12-22 22:12:00
5:27 PM,19.4,14.0,80,29.51,3.0,NW,8.1,19.6,0.00,Snow,Light Snow,310,2012-12-22 22:27:00
5:36 PM,19.4,14.0,80,29.52,2.5,WNW,8.1,16.1,0.00,Snow,Light Snow,300,2012-12-22 22:36:00
5:49 PM,19.4,15.8,86,29.52,1.5,WNW,9.2,-,0.00,Snow,Light Snow,290,2012-12-22 22:49:00
5:51 PM,19.0,15.1,85,29.57,1.8,WNW,9.2,-,0.00,Snow,Light Snow,300,2012-12-22 22:51:00
6:01 PM,19.4,15.8,86,29.53,2.5,WNW,12.7,20.7,0.00,Snow,Light Snow,300,2012-12-22 23:01:00
6:09 PM,19.4,14.0,80,29.53,4.0,WNW,15.0,20.7,0.00,Snow,Light Snow,300,2012-12-22 23:09:00
6:21 PM,19.4,12.2,74,29.54,5.0,WNW,13.8,20.7,0.00,Snow,Light Snow,300,2012-12-22 23:21:00
6:27 PM,19.4,14.0,80,29.54,2.5,WNW,13.8,18.4,0.00,Snow,Light Snow,300,2012-12-22 23:27:00
6:51 PM,19.0,14.0,81,29.60,4.0,WNW,15.0,21.9,0.00,Snow,Light Snow,290,2012-12-22 23:51:00
7:03 PM,19.4,14.0,80,29.55,2.0,NW,11.5,19.6,0.00,Snow,Light Snow,310,2012-12-23 00:03:00
7:35 PM,19.4,15.8,86,29.56,1.2,WNW,10.4,16.1,0.00,Snow,Light Snow,300,2012-12-23 00:35:00
7:46 PM,19.4,15.8,86,29.57,1.0,WNW,5.8,17.3,0.00,Snow,Light Snow,300,2012-12-23 00:46:00
7:51 PM,19.0,16.0,88,29.62,1.2,NW,6.9,-,0.00,Snow,Light Snow,310,2012-12-23 00:51:00
7:55 PM,19.4,15.8,86,29.57,2.0,NW,6.9,-,0.00,Snow,Light Snow,310,2012-12-23 00:55:00
8:17 PM,19.4,15.8,86,29.58,1.8,NW,8.1,19.6,0.00,Snow,Light Snow,310,2012-12-23 01:17:00
8:36 PM,17.6,15.8,93,29.58,1.2,NW,10.4,17.3,0.00,Snow,Light Snow,310,2012-12-23 01:36:00
8:49 PM,17.6,15.8,93,29.59,1.0,NW,4.6,-,0.00,Snow,Light Snow,320,2012-12-23 01:49:00
8:51 PM,17.6,15.8,93,29.59,1.0,NNW,4.6,-,N/A,Snow,Light Snow,330,2012-12-23 01:51:00
9:30 PM,19.4,17.6,93,29.60,0.8,Calm,Calm,-,0.01,Snow,Light Snow,0,2012-12-23 02:30:00
9:44 PM,19.4,17.6,93,29.61,1.0,NW,8.1,-,0.02,Snow,Light Snow,310,2012-12-23 02:44:00
9:51 PM,19.4,15.8,86,29.61,1.2,NW,6.9,-,N/A,Snow,Light Snow,320,2012-12-23 02:51:00
10:03 PM,19.4,17.6,93,29.61,1.2,NW,5.8,-,0.00,Snow,Light Snow,320,2012-12-23 03:03:00
10:10 PM,19.4,15.8,86,29.62,2.0,WNW,13.8,19.6,0.00,Snow,Light Snow,300,2012-12-23 03:10:00
10:25 PM,19.4,15.8,86,29.62,3.0,WNW,11.5,20.7,0.00,Snow,Light Snow,300,2012-12-23 03:25:00
10:34 PM,19.4,15.8,86,29.62,2.5,WNW,17.3,25.3,0.00,Snow,Light Snow,300,2012-12-23 03:34:00
10:41 PM,19.4,15.8,86,29.63,2.5,WNW,16.1,23.0,0.00,Snow,Light Snow,300,2012-12-23 03:41:00
10:51 PM,19.0,15.1,85,29.69,2.0,WNW,13.8,21.9,0.00,Snow,Light Snow,290,2012-12-23 03:51:00
11:14 PM,19.4,15.8,86,29.64,1.2,WNW,15.0,21.9,0.00,Snow,Light Snow,290,2012-12-23 04:14:00
11:30 PM,19.4,15.8,86,29.64,1.5,WNW,16.1,23.0,0.00,Snow,Light Snow,290,2012-12-23 04:30:00
11:51 PM,18.0,14.0,84,29.71,3.0,WNW,18.4,25.3,0.00,Snow,Light Snow,300,2012-12-23 04:51:00